Temp
45 46 47 48 48 48 48 49 50 50 50 50 50 50 50 50 50 50 51 51 51 51 51 52 52 52 53 52 51 50 50 50 49 50 50 50 50 50 49 49 49 49 49 49 49 49 49 49 48 48 47 47 47 47 47 47 47 47 47 46 46 46 46 45 45 45 45 45 44
43 44 45 47 49 48 48 48 48 49 50 50 50 50 50 50 50 51 51 51 51 51 51 52 52 52 52 51 50 50 49 49 49 49 49 50 50 50 49 49 49 49 48 48 48 49 49 49 48 47 46 47 47 47 47 47 47 46 46 46 46 46 45 45 45 45 45 45 45
42 42 43 43 44 45 46 47 48 49 50 50 50 49 49 49 50 50 51 52 52 51 51 51 52 52 51 50 50 49 49 49 49 49 49 49 49 49 49 49 49 49 49 48 48 48 48 48 47 47 46 46 46 46 46 47 47 46 46 45 45 45 45 44 45 45 45 44 44
42 42 42 43 43 44 45 47 48 49 49 49 48 47 47 47 48 49 50 51 50 50 50 51 52 52 52 51 49 48 48 48 48 48 48 48 49 49 49 48 48 48 48 48 48 48 48 48 47 47 46 46 46 46 46 47 47 46 46 46 45 45 45 44 45 45 44 44 44
43 43 43 44 44 44 45 45 46 46 47 46 45 45 45 46 47 48 48 48 49 50 51 51 51 51 51 50 49 48 47 47 48 48 48 48 48 48 48 48 48 48 48 48 47 47 47 47 47 46 46 47 46 46 46 47 47 46 46 45 45 45 45 44 44 44 44 44 43
45 45 44 44 43 43 43 43 43 43 44 43 43 43 44 45 46 46 46 47 49 50 50 49 49 50 50 49 48 47 46 45 46 47 48 48 48 48 47 47 47 47 47 47 47 47 46 46 46 46 46 46 46 46 47 47 47 46 45 45 45 45 45 44 44 44 44 43 43
45 44 44 44 43 43 43 43 42 42 42 41 42 42 44 45 46 46 46 47 47 47 48 48 48 48 48 48 47 47 46 46 45 45 46 46 47 47 47 47 46 46 46 47 46 46 46 45 45 45 46 46 46 46 46 46 46 45 45 44 45 45 44 44 44 44 43 43 42
43 43 44 44 43 43 42 42 41 41 41 41 42 43 43 44 44 45 45 44 45 45 46 46 46 46 46 46 46 46 46 45 45 45 45 45 46 46 46 46 46 45 45 45 45 45 45 45 45 45 45 46 46 46 46 46 45 44 44 44 44 45 44 43 42 42 42 42 41
44 45 45 44 43 43 42 42 41 40 40 41 42 42 43 43 43 43 43 43 44 45 45 45 44 44 44 43 44 44 45 45 45 45 44 44 44 45 45 45 45 45 45 45 45 44 44 44 44 45 45 45 45 45 46 45 43 43 43 43 44 44 45 44 43 42 42 41 39
45 45 45 45 44 43 42 41 40 40 40 40 41 42 42 43 43 43 44 44 44 44 44 44 44 43 43 42 42 43 44 44 44 44 44 44 44 44 44 44 44 44 44 44 44 44 44 43 44 44 45 45 45 45 45 44 43 42 42 43 43 44 44 44 44 43 42 40 39
44 45 45 45 44 43 42 41 41 40 40 41 41 42 42 42 43 43 44 44 43 42 43 43 43 42 42 42 42 43 43 43 43 43 43 43 43 43 43 44 44 44 44 44 44 44 43 43 43 43 43 44 44 44 43 42 42 41 41 42 43 43 43 43 43 43 42 41 39
44 44 44 44 43 42 41 40 41 41 41 41 42 42 43 43 43 43 43 42 42 42 42 43 42 42 41 42 42 43 43 42 42 41 41 42 42 42 42 43 43 43 43 43 43 43 43 42 42 42 42 43 43 43 42 41 41 40 41 41 42 42 41 41 41 41 41 41 40
43 43 43 43 42 41 40 40 41 41 42 42 42 43 44 44 44 44 43 42 42 42 43 43 42 41 41 41 42 42 42 42 41 41 41 41 42 42 41 41 42 42 42 42 42 42 42 42 41 40 40 40 42 42 41 40 40 40 40 40 41 41 40 39 39 40 41 41 39
42 42 42 42 41 41 41 41 41 42 43 43 44 44 45 45 45 44 43 42 42 43 43 43 42 42 42 41 42 41 41 41 41 40 40 41 41 41 41 41 41 41 41 42 42 42 41 41 40 39 39 39 40 41 41 40 40 39 39 40 40 40 39 39 39 39 39 39 39
43 42 42 42 41 41 41 41 42 43 44 44 45 45 45 46 46 45 44 43 43 43 42 42 42 42 43 42 41 41 41 40 40 40 40 40 41 41 41 41 41 41 41 41 41 41 40 39 39 38 38 38 39 39 40 40 39 39 39 39 39 39 39 38 38 38 38 38 38
43 43 42 42 42 42 42 42 44 44 44 45 46 46 46 46 46 45 44 43 43 43 43 42 42 43 43 42 42 41 40 40 39 39 39 40 41 41 41 41 42 41 41 40 40 41 40 40 39 38 38 38 38 39 39 39 39 38 38 38 38 38 37 38 38 38 38 38 38
43 43 42 42 42 42 42 43 44 44 45 45 45 45 46 46 45 45 45 44 44 44 43 43 43 43 43 44 43 43 42 41 40 40 40 41 41 41 42 42 42 42 40 39 39 40 40 40 40 39 38 38 38 38 38 38 38 38 37 37 37 37 37 38 38 39 39 38 38
43 43 43 42 42 42 43 43 44 44 44 44 45 45 45 45 45 44 44 44 44 43 43 43 43 43 43 43 43 43 43 42 42 42 42 42 42 42 42 42 43 42 40 38 39 40 40 40 40 40 39 38 38 38 38 37 37 37 37 37 37 36 36 37 38 38 39 38 38
43 43 43 43 43 43 43 43 44 44 44 44 44 44 44 44 43 43 43 43 43 43 43 42 43 43 43 43 43 43 43 43 43 43 43 42 42 42 42 42 42 42 40 37 38 39 40 40 40 40 39 38 37 37 37 37 37 37 37 37 37 36 36 36 37 38 38 38 38
43 43 43 43 43 43 43 43 43 44 44 44 43 43 43 43 43 43 43 43 43 43 43 42 42 43 43 43 43 43 43 44 43 43 43 43 42 42 42 42 42 42 40 36 37 39 39 40 40 39 38 37 36 36 37 37 37 37 37 37 37 36 36 36 36 36 36 36 37
43 43 43 43 43 43 43 43 43 43 43 43 43 43 43 43 43 43 43 43 43 43 43 42 42 42 42 43 43 43 43 44 44 43 43 43 42 42 42 42 42 42 40 37 37 38 39 39 39 38 37 36 36 36 36 37 37 37 37 37 37 37 36 36 36 36 36 36 36
43 43 43 43 43 43 43 43 43 43 42 42 42 42 42 43 43 43 43 43 43 43 43 43 43 43 42 43 43 43 43 44 44 44 44 43 43 43 43 43 42 41 40 37 36 37 38 38 37 36 36 36 35 35 36 36 37 37 38 38 38 36 36 36 36 36 35 36 36
43 43 43 43 43 43 43 43 42 42 42 42 42 42 42 43 43 43 44 43 43 43 43 43 43 43 43 43 43 43 43 43 43 43 44 43 43 43 43 43 41 40 39 38 37 36 36 36 35 35 35 36 35 35 35 36 37 37 37 38 37 36 35 35 35 35 35 35 35
42 42 43 43 43 42 42 42 42 42 42 42 42 43 43 43 43 43 43 43 43 43 43 43 44 44 44 43 43 43 42 42 42 43 43 43 43 43 43 42 42 41 41 39 39 39 38 38 37 36 36 35 35 36 36 37 37 37 37 37 37 36 36 35 34 34 34 34 35
42 42 42 42 42 42 42 41 41 41 42 42 42 43 43 43 43 43 43 43 43 43 43 43 43 44 44 44 43 43 43 42 42 42 42 43 43 43 43 43 43 42 41 40 42 43 44 44 42 41 39 37 37 37 38 37 37 37 36 36 36 36 36 36 35 35 34 34 34
41 41 41 41 41 41 41 41 41 41 42 42 42 42 43 43 43 43 43 43 43 43 43 43 43 44 44 45 44 44 44 44 44 43 43 43 43 43 43 44 43 41 39 40 43 45 46 46 46 45 42 39 40 39 39 39 38 37 36 36 36 36 36 36 36 37 36 35 35
40 40 40 40 40 40 40 41 41 41 41 42 42 42 43 43 43 43 43 42 43 43 43 44 44 44 45 45 44 44 44 44 44 44 43 43 42 43 43 44 43 40 38 41 44 46 46 47 47 47 44 40 41 41 41 40 39 38 37 37 37 36 36 36 37 38 38 37 36
39 39 39 40 39 40 40 41 41 41 41 42 42 42 43 43 42 42 42 42 43 43 43 44 44 45 45 45 44 44 43 43 44 44 44 43 43 43 43 44 43 41 41 43 45 46 47 47 48 48 47 45 43 42 42 41 40 40 39 38 38 38 38 38 38 39 39 38 38
39 39 39 39 39 39 40 40 40 41 42 42 42 42 42 42 42 42 42 42 42 42 43 44 45 45 44 44 44 44 43 43 44 44 44 43 43 43 43 44 43 44 45 46 47 47 47 48 48 48 48 48 46 44 43 43 42 42 41 40 40 40 40 39 40 40 40 40 39
38 38 38 38 38 39 39 40 41 41 42 42 42 42 41 41 41 41 41 41 41 42 43 43 43 43 43 43 43 43 43 44 44 44 43 43 43 43 43 44 44 43 44 46 46 47 47 47 48 48 48 48 47 45 44 43 43 43 42 42 42 41 41 41 41 41 41 41 41
37 37 37 38 38 38 39 40 41 41 41 42 41 41 41 41 41 41 41 41 42 42 43 43 42 42 42 43 43 43 43 43 43 43 43 42 43 43 44 44 43 43 43 45 46 47 47 47 47 48 48 48 47 46 45 44 43 43 43 43 43 43 43 42 42 42 42 42 41
37 37 37 37 38 38 39 40 40 41 41 41 41 40 40 40 40 41 41 41 41 41 42 41 41 41 42 42 43 43 43 43 43 43 43 43 43 43 43 44 43 43 43 45 46 46 47 47 47 48 48 48 48 47 45 45 44 44 44 43 43 43 43 42 42 42 42 42 41
37 37 37 37 37 38 39 40 40 40 40 40 40 40 40 40 40 40 40 41 41 41 41 41 41 41 41 42 42 42 42 43 43 43 43 43 43 43 43 43 43 44 44 45 46 46 47 47 47 48 48 48 47 47 47 46 45 45 44 44 44 44 43 43 43 43 43 42 42
37 37 37 37 37 38 39 39 40 40 40 39 39 39 39 39 39 39 40 41 41 42 42 42 42 42 42 42 42 42 42 42 43 43 43 43 42 42 42 42 43 44 44 45 46 46 46 47 47 47 47 48 47 47 46 46 45 45 45 44 44 44 43 42 42 42 41 41 42
37 36 37 37 38 38 39 39 39 39 39 39 39 39 39 39 39 39 40 41 42 42 42 42 42 42 42 42 42 42 42 42 42 42 42 42 42 42 41 42 42 43 44 45 45 45 46 46 46 47 47 47 46 46 46 45 45 45 44 44 44 44 43 42 41 41 41 41 41
37 37 37 38 38 39 39 39 39 39 38 38 38 38 39 39 39 40 41 41 41 41 41 41 42 42 42 42 42 42 42 41 41 41 42 42 41 41 41 41 42 42 43 44 44 45 45 45 46 46 46 46 46 45 45 44 44 44 43 43 43 43 43 43 41 41 40 40 40
38 38 38 38 38 38 39 39 38 38 38 38 38 38 38 39 39 40 41 41 41 40 40 41 41 41 41 41 41 41 41 41 41 41 41 41 41 41 40 40 41 42 43 43 44 44 45 45 45 45 45 45 44 44 44 43 43 42 42 42 42 42 42 42 42 41 39 39 38
39 39 38 38 38 38 38 38 38 38 38 38 38 38 39 39 39 40 40 41 40 40 40 40 40 40 40 40 41 41 41 41 41 41 41 41 41 40 40 40 40 41 42 43 43 44 44 44 45 45 44 44 43 43 43 42 42 41 41 41 41 42 42 42 42 42 41 38 40
39 39 38 38 38 38 38 38 38 38 38 38 38 38 39 39 39 40 40 41 40 40 40 39 39 40 40 40 40 40 41 41 41 41 40 40 40 40 40 40 40 41 42 42 43 43 43 43 44 44 44 43 43 42 42 41 41 41 41 41 41 42 42 42 42 42 42 41 42
39 39 38 38 38 38 37 37 38 38 38 38 38 38 39 39 39 40 41 41 41 40 40 39 39 40 40 40 40 40 40 40 40 40 40 40 40 40 40 40 40 40 41 42 42 42 42 43 43 43 43 43 42 42 41 40 40 40 40 40 41 41 41 42 42 42 41 41 42
39 38 38 38 38 37 37 37 38 38 38 38 38 38 39 39 40 40 40 40 40 40 40 39 39 40 40 40 39 39 39 39 39 40 40 40 40 40 40 40 39 39 40 41 41 42 42 42 43 43 43 42 42 41 41 40 39 39 40 40 40 40 40 40 41 41 41 41 41
MSLP
1021.81 1021.65 1021.49 1021.37 1021.29 1021.17 1021.09 1020.93 1020.85 1020.73 1020.69 1020.61 1020.53 1020.41 1020.33 1020.33 1020.21 1020.09 1019.93 1019.89 1019.77 1019.61 1019.45 1019.33 1019.17 1019.01 1018.89 1018.89 1018.93 1019.01 1019.05 1019.05 1019.05 1019.09 1019.05 1019.05 1019.05 1019.05 1019.09 1019.13 1019.17 1019.25 1019.25 1019.25 1019.29 1019.37 1019.45 1019.57 1019.65 1019.77 1019.77 1019.77 1019.77 1019.73 1019.73 1019.73 1019.77 1019.81 1019.85 1019.89 1019.89 1019.89 1019.89 1019.97 1019.89 1019.85 1019.85 1019.89 1019.93
1022.05 1021.93 1021.81 1021.65 1021.45 1021.33 1021.17 1021.01 1020.85 1020.69 1020.57 1020.41 1020.33 1020.21 1020.17 1020.09 1020.05 1019.89 1019.69 1019.61 1019.45 1019.37 1019.25 1019.13 1018.97 1018.85 1018.77 1018.73 1018.77 1018.85 1018.85 1018.81 1018.81 1018.81 1018.81 1018.77 1018.73 1018.73 1018.81 1018.85 1018.89 1018.93 1018.97 1019.01 1019.09 1019.17 1019.21 1019.29 1019.41 1019.45 1019.45 1019.45 1019.45 1019.41 1019.33 1019.37 1019.45 1019.49 1019.49 1019.53 1019.57 1019.61 1019.61 1019.61 1019.53 1019.45 1019.53 1019.61 1019.65
1021.89 1021.89 1021.81 1021.77 1021.65 1021.53 1021.37 1021.17 1020.89 1020.69 1020.53 1020.41 1020.33 1020.25 1020.17 1020.09 1019.93 1019.77 1019.53 1019.33 1019.17 1019.17 1019.13 1018.97 1018.77 1018.65 1018.61 1018.61 1018.61 1018.61 1018.61 1018.61 1018.61 1018.61 1018.57 1018.49 1018.45 1018.49 1018.53 1018.61 1018.61 1018.65 1018.69 1018.73 1018.81 1018.89 1018.89 1019.01 1019.13 1019.17 1019.17 1019.17 1019.13 1019.05 1019.01 1018.97 1019.09 1019.17 1019.17 1019.17 1019.25 1019.33 1019.33 1019.25 1019.17 1019.17 1019.25 1019.33 1019.33
1021.61 1021.57 1021.53 1021.45 1021.45 1021.37 1021.29 1021.09 1020.85 1020.65 1020.57 1020.45 1020.37 1020.33 1020.25 1020.13 1019.93 1019.73 1019.49 1019.29 1019.17 1019.13 1019.01 1018.77 1018.61 1018.49 1018.45 1018.41 1018.41 1018.41 1018.41 1018.37 1018.33 1018.33 1018.33 1018.21 1018.17 1018.17 1018.21 1018.25 1018.33 1018.33 1018.37 1018.45 1018.53 1018.57 1018.65 1018.73 1018.85 1018.89 1018.85 1018.77 1018.73 1018.69 1018.61 1018.61 1018.73 1018.81 1018.85 1018.85 1018.89 1018.93 1018.93 1018.89 1018.85 1018.89 1018.97 1018.97 1018.97
1021.41 1021.33 1021.33 1021.29 1021.21 1021.13 1021.05 1021.01 1020.85 1020.69 1020.57 1020.45 1020.41 1020.29 1020.13 1019.97 1019.81 1019.65 1019.49 1019.37 1019.17 1018.93 1018.73 1018.61 1018.53 1018.41 1018.33 1018.25 1018.25 1018.21 1018.17 1018.17 1018.17 1018.13 1018.05 1017.97 1017.89 1017.89 1017.97 1018.05 1018.05 1018.05 1018.09 1018.17 1018.21 1018.29 1018.37 1018.49 1018.61 1018.57 1018.49 1018.45 1018.41 1018.33 1018.25 1018.29 1018.41 1018.45 1018.45 1018.49 1018.57 1018.57 1018.57 1018.49 1018.49 1018.53 1018.57 1018.61 1018.61
1021.21 1021.13 1021.09 1021.09 1021.05 1021.01 1020.93 1020.89 1020.77 1020.65 1020.53 1020.45 1020.33 1020.13 1019.89 1019.73 1019.61 1019.49 1019.37 1019.21 1018.93 1018.73 1018.61 1018.61 1018.53 1018.45 1018.29 1018.17 1018.13 1018.05 1018.05 1018.05 1017.97 1017.89 1017.85 1017.77 1017.65 1017.65 1017.69 1017.73 1017.73 1017.77 1017.81 1017.89 1017.93 1018.05 1018.17 1018.29 1018.33 1018.29 1018.21 1018.17 1018.13 1018.01 1017.93 1018.01 1018.09 1018.13 1018.17 1018.17 1018.17 1018.17 1018.17 1018.17 1018.17 1018.17 1018.21 1018.21 1018.21
1021.17 1021.05 1020.97 1020.89 1020.89 1020.81 1020.73 1020.65 1020.61 1020.53 1020.45 1020.37 1020.21 1020.01 1019.77 1019.53 1019.41 1019.33 1019.17 1019.05 1018.89 1018.73 1018.61 1018.57 1018.49 1018.41 1018.29 1018.17 1018.09 1018.01 1017.89 1017.77 1017.77 1017.73 1017.65 1017.57 1017.45 1017.41 1017.41 1017.41 1017.45 1017.49 1017.53 1017.57 1017.65 1017.77 1017.89 1018.01 1018.05 1018.01 1017.93 1017.89 1017.77 1017.69 1017.65 1017.73 1017.81 1017.85 1017.81 1017.77 1017.73 1017.77 1017.77 1017.77 1017.77 1017.81 1017.85 1017.77 1017.77
1021.09 1021.01 1020.89 1020.73 1020.73 1020.65 1020.61 1020.49 1020.45 1020.41 1020.33 1020.21 1020.05 1019.81 1019.61 1019.45 1019.33 1019.21 1019.09 1019.01 1018.89 1018.73 1018.57 1018.49 1018.37 1018.33 1018.25 1018.17 1018.05 1017.89 1017.77 1017.65 1017.57 1017.53 1017.49 1017.41 1017.33 1017.25 1017.17 1017.17 1017.21 1017.21 1017.25 1017.33 1017.37 1017.45 1017.57 1017.69 1017.77 1017.69 1017.61 1017.57 1017.45 1017.33 1017.29 1017.37 1017.45 1017.45 1017.41 1017.33 1017.29 1017.29 1017.33 1017.33 1017.37 1017.41 1017.41 1017.41 1017.41
1020.89 1020.77 1020.69 1020.61 1020.57 1020.49 1020.45 1020.37 1020.37 1020.33 1020.17 1020.01 1019.81 1019.61 1019.49 1019.37 1019.29 1019.17 1019.05 1018.89 1018.73 1018.61 1018.49 1018.37 1018.25 1018.17 1018.17 1018.09 1018.01 1017.85 1017.69 1017.57 1017.45 1017.37 1017.33 1017.25 1017.17 1017.09 1017.01 1016.97 1016.97 1016.97 1016.97 1017.05 1017.13 1017.21 1017.33 1017.41 1017.41 1017.33 1017.25 1017.17 1017.09 1016.97 1016.89 1016.97 1017.09 1017.09 1017.05 1016.97 1016.89 1016.85 1016.85 1016.89 1016.93 1016.97 1016.97 1017.01 1017.05
1020.77 1020.65 1020.57 1020.45 1020.37 1020.33 1020.29 1020.25 1020.21 1020.17 1020.05 1019.89 1019.65 1019.45 1019.33 1019.25 1019.13 1019.05 1018.89 1018.73 1018.61 1018.49 1018.37 1018.25 1018.13 1018.09 1018.05 1017.93 1017.81 1017.69 1017.61 1017.49 1017.41 1017.33 1017.25 1017.17 1017.05 1016.93 1016.85 1016.77 1016.73 1016.65 1016.65 1016.73 1016.81 1016.93 1017.05 1017.13 1017.09 1016.97 1016.89 1016.81 1016.73 1016.65 1016.61 1016.69 1016.73 1016.73 1016.69 1016.61 1016.57 1016.45 1016.45 1016.45 1016.45 1016.49 1016.57 1016.57 1016.57
1020.73 1020.61 1020.53 1020.45 1020.33 1020.25 1020.17 1020.17 1020.05 1019.93 1019.85 1019.65 1019.45 1019.29 1019.17 1019.05 1018.97 1018.85 1018.73 1018.65 1018.57 1018.41 1018.17 1018.05 1018.05 1017.97 1017.85 1017.73 1017.61 1017.45 1017.41 1017.41 1017.33 1017.25 1017.17 1017.09 1016.97 1016.85 1016.73 1016.61 1016.45 1016.41 1016.33 1016.33 1016.45 1016.57 1016.69 1016.73 1016.73 1016.61 1016.57 1016.49 1016.45 1016.37 1016.41 1016.45 1016.45 1016.45 1016.41 1016.33 1016.25 1016.17 1016.13 1016.09 1016.09 1016.13 1016.17 1016.13 1016.13
1020.73 1020.61 1020.49 1020.41 1020.29 1020.21 1020.13 1020.05 1019.89 1019.77 1019.61 1019.45 1019.25 1019.13 1018.97 1018.85 1018.73 1018.61 1018.61 1018.53 1018.41 1018.17 1017.97 1017.89 1017.89 1017.81 1017.69 1017.53 1017.37 1017.25 1017.17 1017.17 1017.17 1017.13 1017.05 1016.93 1016.81 1016.73 1016.61 1016.45 1016.33 1016.25 1016.17 1016.09 1016.17 1016.25 1016.33 1016.33 1016.29 1016.25 1016.17 1016.17 1016.17 1016.17 1016.17 1016.17 1016.21 1016.21 1016.17 1016.05 1016.05 1015.97 1015.89 1015.81 1015.77 1015.85 1015.85 1015.85 1015.89
1020.69 1020.57 1020.45 1020.33 1020.21 1020.13 1020.05 1019.93 1019.77 1019.61 1019.41 1019.21 1019.05 1018.89 1018.73 1018.57 1018.45 1018.45 1018.41 1018.33 1018.17 1017.97 1017.77 1017.65 1017.65 1017.61 1017.53 1017.37 1017.25 1017.17 1017.05 1017.01 1016.97 1016.89 1016.81 1016.69 1016.57 1016.49 1016.41 1016.33 1016.25 1016.17 1016.05 1016.01 1016.01 1016.05 1016.01 1015.97 1015.93 1015.89 1015.89 1015.85 1015.85 1015.81 1015.81 1015.85 1015.89 1015.93 1015.89 1015.81 1015.81 1015.77 1015.65 1015.57 1015.57 1015.61 1015.65 1015.65 1015.65
1020.61 1020.49 1020.37 1020.25 1020.13 1020.05 1019.93 1019.77 1019.61 1019.41 1019.21 1019.05 1018.85 1018.73 1018.57 1018.37 1018.25 1018.21 1018.17 1018.09 1017.93 1017.77 1017.61 1017.49 1017.41 1017.37 1017.33 1017.17 1017.09 1017.05 1016.93 1016.89 1016.81 1016.73 1016.61 1016.45 1016.33 1016.21 1016.09 1016.01 1015.89 1015.89 1015.85 1015.77 1015.81 1015.85 1015.77 1015.73 1015.61 1015.61 1015.57 1015.53 1015.45 1015.41 1015.45 1015.49 1015.53 1015.57 1015.57 1015.49 1015.45 1015.41 1015.33 1015.33 1015.33 1015.45 1015.53 1015.53 1015.45
1020.49 1020.37 1020.25 1020.17 1020.05 1019.89 1019.77 1019.61 1019.45 1019.21 1019.05 1018.89 1018.65 1018.49 1018.37 1018.21 1018.05 1018.01 1017.97 1017.89 1017.77 1017.61 1017.49 1017.41 1017.25 1017.13 1017.05 1017.05 1016.97 1016.89 1016.85 1016.73 1016.65 1016.53 1016.41 1016.21 1016.05 1015.93 1015.81 1015.65 1015.53 1015.45 1015.45 1015.41 1015.41 1015.45 1015.45 1015.41 1015.33 1015.33 1015.29 1015.21 1015.17 1015.13 1015.13 1015.17 1015.17 1015.21 1015.21 1015.17 1015.13 1015.05 1015.05 1015.01 1015.05 1015.17 1015.25 1015.29 1015.21
1020.41 1020.25 1020.13 1020.05 1019.89 1019.77 1019.61 1019.45 1019.29 1019.09 1018.89 1018.73 1018.53 1018.37 1018.25 1018.13 1017.93 1017.85 1017.77 1017.77 1017.61 1017.45 1017.37 1017.25 1017.09 1016.93 1016.81 1016.73 1016.73 1016.73 1016.65 1016.61 1016.45 1016.33 1016.17 1015.97 1015.77 1015.61 1015.53 1015.37 1015.21 1015.09 1015.05 1015.01 1014.97 1014.93 1014.89 1014.89 1014.89 1014.89 1014.85 1014.81 1014.77 1014.77 1014.81 1014.89 1014.89 1014.89 1014.85 1014.77 1014.73 1014.73 1014.69 1014.61 1014.61 1014.65 1014.69 1014.73 1014.73
1020.33 1020.17 1020.05 1019.89 1019.77 1019.61 1019.45 1019.33 1019.17 1018.97 1018.77 1018.61 1018.45 1018.33 1018.17 1018.05 1017.85 1017.77 1017.65 1017.57 1017.45 1017.33 1017.17 1017.05 1016.89 1016.73 1016.61 1016.49 1016.45 1016.45 1016.41 1016.33 1016.17 1016.05 1015.89 1015.73 1015.49 1015.33 1015.21 1015.09 1014.93 1014.85 1014.81 1014.77 1014.73 1014.61 1014.49 1014.41 1014.33 1014.33 1014.29 1014.25 1014.25 1014.25 1014.25 1014.33 1014.45 1014.45 1014.41 1014.33 1014.29 1014.21 1014.13 1014.05 1014.01 1014.01 1014.01 1014.05 1014.05
1020.21 1020.05 1019.93 1019.81 1019.65 1019.49 1019.33 1019.17 1019.05 1018.89 1018.69 1018.53 1018.37 1018.21 1018.05 1017.93 1017.81 1017.65 1017.49 1017.41 1017.33 1017.21 1017.05 1016.85 1016.73 1016.61 1016.45 1016.33 1016.17 1016.17 1016.13 1016.01 1015.85 1015.69 1015.57 1015.37 1015.21 1015.05 1014.93 1014.81 1014.69 1014.61 1014.61 1014.61 1014.53 1014.45 1014.33 1014.21 1014.13 1014.05 1013.97 1013.89 1013.77 1013.65 1013.61 1013.65 1013.69 1013.73 1013.73 1013.65 1013.61 1013.53 1013.45 1013.37 1013.37 1013.41 1013.45 1013.45 1013.41
1020.13 1019.97 1019.81 1019.69 1019.53 1019.37 1019.21 1019.05 1018.89 1018.73 1018.61 1018.45 1018.29 1018.13 1017.97 1017.85 1017.77 1017.61 1017.41 1017.25 1017.17 1017.05 1016.93 1016.73 1016.53 1016.41 1016.29 1016.17 1016.01 1015.89 1015.81 1015.73 1015.53 1015.37 1015.21 1015.09 1014.97 1014.85 1014.69 1014.57 1014.45 1014.37 1014.33 1014.33 1014.29 1014.17 1014.09 1014.05 1013.97 1013.93 1013.89 1013.77 1013.61 1013.45 1013.33 1013.21 1013.17 1013.09 1013.05 1013.01 1012.93 1012.85 1012.77 1012.73 1012.77 1012.85 1012.89 1012.89 1012.89
1020.01 1019.85 1019.73 1019.57 1019.45 1019.29 1019.13 1018.97 1018.81 1018.65 1018.49 1018.33 1018.21 1018.05 1017.89 1017.73 1017.61 1017.45 1017.29 1017.09 1016.97 1016.89 1016.77 1016.61 1016.41 1016.21 1016.05 1015.89 1015.77 1015.61 1015.49 1015.41 1015.29 1015.09 1014.93 1014.81 1014.73 1014.57 1014.45 1014.33 1014.21 1014.13 1014.05 1014.05 1013.97 1013.85 1013.77 1013.69 1013.65 1013.65 1013.65 1013.61 1013.49 1013.37 1013.21 1013.13 1013.01 1012.85 1012.73 1012.65 1012.57 1012.41 1012.33 1012.21 1012.21 1012.25 1012.29 1012.33 1012.33
1019.85 1019.73 1019.61 1019.45 1019.33 1019.21 1019.05 1018.89 1018.73 1018.57 1018.45 1018.29 1018.13 1017.97 1017.81 1017.61 1017.45 1017.33 1017.17 1016.97 1016.81 1016.69 1016.61 1016.45 1016.29 1016.05 1015.89 1015.69 1015.53 1015.37 1015.21 1015.09 1014.97 1014.81 1014.65 1014.53 1014.41 1014.29 1014.17 1014.09 1013.97 1013.81 1013.77 1013.77 1013.65 1013.53 1013.45 1013.37 1013.37 1013.33 1013.33 1013.29 1013.21 1013.13 1013.01 1012.89 1012.73 1012.61 1012.53 1012.45 1012.33 1012.21 1012.09 1012.01 1011.93 1011.89 1011.89 1011.89 1011.89
1019.69 1019.57 1019.45 1019.33 1019.21 1019.09 1018.89 1018.77 1018.61 1018.49 1018.33 1018.17 1018.01 1017.85 1017.65 1017.45 1017.33 1017.17 1016.97 1016.77 1016.65 1016.53 1016.37 1016.21 1016.05 1015.85 1015.65 1015.49 1015.33 1015.13 1014.93 1014.77 1014.69 1014.57 1014.41 1014.25 1014.09 1013.97 1013.89 1013.85 1013.73 1013.57 1013.45 1013.37 1013.33 1013.25 1013.17 1013.13 1013.09 1013.05 1013.05 1012.97 1012.85 1012.73 1012.65 1012.57 1012.45 1012.29 1012.17 1012.09 1012.05 1011.97 1011.93 1011.89 1011.81 1011.73 1011.65 1011.61 1011.61
1019.57 1019.45 1019.33 1019.25 1019.09 1018.93 1018.77 1018.65 1018.49 1018.37 1018.21 1018.05 1017.85 1017.69 1017.49 1017.33 1017.13 1016.93 1016.77 1016.61 1016.49 1016.33 1016.17 1015.97 1015.77 1015.61 1015.45 1015.29 1015.13 1014.93 1014.73 1014.53 1014.37 1014.21 1014.13 1014.01 1013.85 1013.69 1013.61 1013.53 1013.45 1013.33 1013.17 1013.05 1013.01 1013.01 1012.97 1012.89 1012.81 1012.73 1012.73 1012.65 1012.53 1012.41 1012.29 1012.21 1012.13 1011.97 1011.85 1011.73 1011.61 1011.61 1011.61 1011.61 1011.57 1011.49 1011.45 1011.41 1011.41
1019.49 1019.37 1019.25 1019.13 1018.97 1018.85 1018.69 1018.53 1018.37 1018.25 1018.09 1017.89 1017.73 1017.53 1017.33 1017.17 1016.93 1016.73 1016.57 1016.41 1016.25 1016.09 1015.89 1015.73 1015.53 1015.33 1015.17 1015.05 1014.85 1014.73 1014.53 1014.33 1014.13 1013.89 1013.77 1013.65 1013.57 1013.41 1013.29 1013.17 1013.13 1013.01 1012.85 1012.73 1012.69 1012.69 1012.65 1012.61 1012.45 1012.37 1012.33 1012.25 1012.13 1012.01 1011.89 1011.77 1011.73 1011.61 1011.49 1011.37 1011.29 1011.21 1011.17 1011.17 1011.17 1011.17 1011.17 1011.13 1011.17
1019.41 1019.29 1019.17 1019.01 1018.85 1018.69 1018.57 1018.45 1018.25 1018.09 1017.89 1017.73 1017.57 1017.37 1017.17 1017.01 1016.81 1016.61 1016.41 1016.21 1016.05 1015.89 1015.69 1015.49 1015.33 1015.17 1014.97 1014.73 1014.57 1014.41 1014.25 1014.09 1013.89 1013.69 1013.45 1013.29 1013.17 1013.09 1012.97 1012.89 1012.73 1012.57 1012.45 1012.37 1012.25 1012.17 1012.17 1012.13 1012.01 1011.89 1011.77 1011.73 1011.65 1011.53 1011.41 1011.33 1011.21 1011.17 1011.09 1011.05 1010.97 1010.89 1010.81 1010.69 1010.69 1010.69 1010.73 1010.73 1010.73
1019.33 1019.17 1019.01 1018.89 1018.73 1018.57 1018.41 1018.29 1018.09 1017.93 1017.73 1017.53 1017.37 1017.17 1017.01 1016.81 1016.61 1016.45 1016.21 1016.05 1015.81 1015.61 1015.45 1015.33 1015.09 1014.89 1014.69 1014.49 1014.29 1014.09 1013.89 1013.77 1013.65 1013.45 1013.25 1013.05 1012.89 1012.73 1012.61 1012.49 1012.33 1012.21 1012.17 1012.05 1011.89 1011.77 1011.73 1011.61 1011.45 1011.37 1011.29 1011.21 1011.13 1011.01 1010.89 1010.81 1010.73 1010.69 1010.65 1010.61 1010.57 1010.49 1010.41 1010.29 1010.17 1010.17 1010.17 1010.21 1010.29
1019.17 1019.05 1018.85 1018.69 1018.61 1018.45 1018.25 1018.05 1017.89 1017.73 1017.53 1017.33 1017.17 1016.97 1016.77 1016.61 1016.41 1016.25 1016.05 1015.85 1015.61 1015.45 1015.25 1015.05 1014.89 1014.65 1014.45 1014.21 1014.01 1013.85 1013.69 1013.49 1013.37 1013.21 1013.05 1012.85 1012.65 1012.45 1012.33 1012.13 1012.01 1011.89 1011.85 1011.73 1011.53 1011.41 1011.33 1011.17 1011.05 1010.89 1010.81 1010.85 1010.73 1010.61 1010.41 1010.25 1010.21 1010.17 1010.17 1010.17 1010.13 1010.05 1010.01 1009.89 1009.77 1009.73 1009.69 1009.73 1009.81
1019.05 1018.89 1018.73 1018.57 1018.41 1018.25 1018.05 1017.89 1017.77 1017.57 1017.37 1017.17 1016.97 1016.77 1016.61 1016.45 1016.29 1016.09 1015.89 1015.65 1015.45 1015.25 1015.05 1014.85 1014.61 1014.45 1014.25 1014.01 1013.77 1013.61 1013.45 1013.29 1013.13 1012.97 1012.77 1012.61 1012.45 1012.29 1012.05 1011.85 1011.65 1011.53 1011.45 1011.33 1011.17 1011.01 1010.89 1010.73 1010.57 1010.45 1010.33 1010.33 1010.21 1010.09 1009.97 1009.81 1009.73 1009.65 1009.61 1009.61 1009.57 1009.53 1009.45 1009.41 1009.33 1009.29 1009.25 1009.29 1009.33
1018.97 1018.77 1018.61 1018.45 1018.29 1018.05 1017.89 1017.77 1017.57 1017.37 1017.17 1017.01 1016.81 1016.61 1016.45 1016.25 1016.09 1015.89 1015.69 1015.45 1015.29 1015.09 1014.89 1014.65 1014.41 1014.21 1014.05 1013.85 1013.61 1013.41 1013.21 1013.05 1012.89 1012.73 1012.53 1012.33 1012.17 1011.97 1011.77 1011.61 1011.33 1011.17 1011.01 1010.89 1010.77 1010.65 1010.49 1010.37 1010.21 1010.05 1009.93 1009.85 1009.77 1009.65 1009.53 1009.41 1009.25 1009.17 1009.09 1009.05 1009.01 1008.93 1008.89 1008.85 1008.77 1008.73 1008.73 1008.73 1008.73
1018.81 1018.65 1018.49 1018.33 1018.09 1017.89 1017.73 1017.57 1017.37 1017.17 1017.05 1016.85 1016.65 1016.45 1016.29 1016.09 1015.89 1015.69 1015.49 1015.33 1015.09 1014.89 1014.73 1014.49 1014.29 1014.05 1013.85 1013.65 1013.45 1013.21 1012.97 1012.77 1012.61 1012.45 1012.33 1012.17 1011.93 1011.69 1011.45 1011.29 1011.09 1010.89 1010.73 1010.61 1010.49 1010.37 1010.21 1010.05 1009.89 1009.73 1009.57 1009.45 1009.33 1009.25 1009.13 1008.97 1008.89 1008.73 1008.61 1008.49 1008.41 1008.33 1008.33 1008.25 1008.25 1008.17 1008.17 1008.13 1008.13
1018.65 1018.53 1018.33 1018.13 1017.93 1017.73 1017.57 1017.37 1017.17 1017.05 1016.85 1016.65 1016.45 1016.29 1016.09 1015.89 1015.73 1015.53 1015.33 1015.13 1014.89 1014.69 1014.45 1014.33 1014.13 1013.89 1013.61 1013.41 1013.21 1013.01 1012.73 1012.49 1012.33 1012.21 1012.09 1011.89 1011.69 1011.45 1011.17 1010.93 1010.77 1010.61 1010.45 1010.33 1010.25 1010.09 1009.89 1009.77 1009.57 1009.37 1009.21 1009.09 1008.93 1008.81 1008.69 1008.57 1008.45 1008.33 1008.17 1008.05 1007.93 1007.85 1007.77 1007.77 1007.69 1007.65 1007.61 1007.61 1007.61
1018.53 1018.37 1018.21 1018.01 1017.77 1017.61 1017.37 1017.17 1017.05 1016.85 1016.65 1016.49 1016.33 1016.17 1015.93 1015.73 1015.53 1015.33 1015.17 1014.97 1014.73 1014.49 1014.25 1014.05 1013.85 1013.61 1013.33 1013.13 1012.93 1012.73 1012.53 1012.33 1012.13 1011.93 1011.77 1011.61 1011.41 1011.17 1010.93 1010.73 1010.53 1010.33 1010.17 1010.09 1009.93 1009.77 1009.61 1009.45 1009.25 1009.05 1008.89 1008.73 1008.57 1008.41 1008.29 1008.13 1008.01 1007.89 1007.77 1007.61 1007.49 1007.45 1007.37 1007.33 1007.29 1007.21 1007.17 1007.17 1007.17
1018.41 1018.25 1018.05 1017.89 1017.65 1017.41 1017.21 1017.05 1016.89 1016.69 1016.49 1016.33 1016.13 1015.97 1015.77 1015.53 1015.33 1015.13 1014.93 1014.77 1014.57 1014.33 1014.05 1013.81 1013.57 1013.33 1013.09 1012.89 1012.65 1012.45 1012.21 1012.05 1011.89 1011.73 1011.53 1011.37 1011.17 1011.01 1010.73 1010.49 1010.25 1010.05 1009.89 1009.81 1009.65 1009.49 1009.29 1009.09 1008.89 1008.73 1008.57 1008.37 1008.25 1008.05 1007.89 1007.73 1007.57 1007.45 1007.33 1007.17 1007.09 1007.05 1007.01 1006.97 1006.93 1006.89 1006.81 1006.81 1006.77
1018.21 1018.09 1017.89 1017.73 1017.49 1017.29 1017.05 1016.89 1016.73 1016.53 1016.37 1016.17 1015.93 1015.77 1015.57 1015.37 1015.13 1014.89 1014.73 1014.53 1014.33 1014.09 1013.85 1013.61 1013.37 1013.13 1012.89 1012.69 1012.45 1012.21 1011.97 1011.77 1011.61 1011.45 1011.33 1011.17 1010.97 1010.77 1010.57 1010.29 1010.05 1009.81 1009.69 1009.57 1009.41 1009.21 1009.05 1008.81 1008.61 1008.45 1008.25 1008.09 1007.93 1007.73 1007.53 1007.33 1007.21 1007.05 1006.93 1006.81 1006.73 1006.65 1006.65 1006.65 1006.61 1006.61 1006.57 1006.53 1006.49
1018.09 1017.97 1017.77 1017.53 1017.33 1017.13 1016.93 1016.73 1016.57 1016.41 1016.17 1016.01 1015.77 1015.53 1015.33 1015.17 1015.01 1014.77 1014.53 1014.29 1014.05 1013.85 1013.61 1013.33 1013.13 1012.89 1012.69 1012.45 1012.33 1012.09 1011.81 1011.53 1011.33 1011.17 1011.05 1010.93 1010.73 1010.53 1010.29 1010.01 1009.77 1009.57 1009.45 1009.33 1009.17 1009.01 1008.73 1008.53 1008.33 1008.13 1007.97 1007.81 1007.61 1007.41 1007.17 1007.01 1006.85 1006.69 1006.57 1006.49 1006.41 1006.33 1006.33 1006.33 1006.33 1006.33 1006.29 1006.29 1006.25
1017.97 1017.85 1017.61 1017.37 1017.17 1016.97 1016.77 1016.61 1016.41 1016.21 1016.05 1015.81 1015.61 1015.33 1015.13 1014.93 1014.73 1014.57 1014.37 1014.17 1013.89 1013.61 1013.33 1013.09 1012.85 1012.61 1012.41 1012.21 1012.01 1011.81 1011.61 1011.37 1011.17 1010.97 1010.77 1010.69 1010.53 1010.29 1009.97 1009.69 1009.45 1009.29 1009.17 1009.09 1008.93 1008.73 1008.49 1008.29 1008.05 1007.89 1007.69 1007.49 1007.29 1007.05 1006.89 1006.69 1006.53 1006.37 1006.25 1006.17 1006.13 1006.05 1006.01 1006.01 1006.01 1006.01 1006.01 1006.01 1005.97
1017.77 1017.65 1017.45 1017.25 1017.05 1016.81 1016.65 1016.45 1016.29 1016.05 1015.85 1015.61 1015.41 1015.21 1015.01 1014.73 1014.53 1014.33 1014.17 1014.01 1013.73 1013.37 1013.09 1012.89 1012.61 1012.41 1012.17 1012.01 1011.77 1011.53 1011.37 1011.21 1011.05 1010.77 1010.57 1010.41 1010.29 1010.05 1009.77 1009.45 1009.17 1009.01 1008.89 1008.73 1008.61 1008.45 1008.25 1008.05 1007.81 1007.61 1007.45 1007.29 1007.05 1006.77 1006.57 1006.41 1006.25 1006.13 1006.01 1005.89 1005.81 1005.73 1005.73 1005.73 1005.73 1005.73 1005.77 1005.77 1005.77
1017.61 1017.45 1017.33 1017.09 1016.89 1016.69 1016.49 1016.33 1016.13 1015.89 1015.69 1015.45 1015.21 1015.05 1014.89 1014.61 1014.37 1014.13 1013.93 1013.81 1013.57 1013.21 1012.89 1012.61 1012.41 1012.17 1012.01 1011.81 1011.53 1011.29 1011.05 1010.93 1010.81 1010.61 1010.37 1010.17 1010.01 1009.85 1009.61 1009.25 1008.93 1008.69 1008.57 1008.45 1008.33 1008.17 1008.01 1007.77 1007.57 1007.41 1007.25 1007.09 1006.81 1006.57 1006.33 1006.13 1005.97 1005.81 1005.69 1005.61 1005.49 1005.45 1005.45 1005.49 1005.45 1005.45 1005.45 1005.49 1005.49
1017.41 1017.29 1017.17 1016.97 1016.77 1016.53 1016.33 1016.17 1015.97 1015.77 1015.53 1015.29 1015.05 1014.85 1014.65 1014.45 1014.21 1013.97 1013.77 1013.61 1013.41 1013.13 1012.77 1012.45 1012.17 1011.97 1011.77 1011.61 1011.33 1011.01 1010.73 1010.61 1010.49 1010.37 1010.17 1009.93 1009.77 1009.61 1009.41 1009.09 1008.73 1008.45 1008.29 1008.17 1008.05 1007.89 1007.77 1007.57 1007.33 1007.17 1007.05 1006.89 1006.65 1006.41 1006.17 1005.93 1005.77 1005.57 1005.45 1005.33 1005.25 1005.17 1005.17 1005.17 1005.17 1005.17 1005.17 1005.13 1005.09
1017.21 1017.13 1017.01 1016.81 1016.61 1016.41 1016.17 1015.97 1015.77 1015.61 1015.41 1015.17 1014.89 1014.65 1014.45 1014.29 1014.01 1013.77 1013.53 1013.37 1013.17 1012.97 1012.69 1012.37 1012.05 1011.77 1011.57 1011.37 1011.13 1010.81 1010.49 1010.25 1010.17 1010.05 1009.93 1009.77 1009.57 1009.37 1009.17 1008.89 1008.57 1008.29 1008.05 1007.93 1007.81 1007.65 1007.45 1007.29 1007.05 1006.89 1006.73 1006.61 1006.45 1006.21 1006.01 1005.77 1005.57 1005.33 1005.17 1005.09 1005.01 1004.93 1004.89 1004.85 1004.89 1004.89 1004.85 1004.81 1004.73
1017.05 1016.93 1016.77 1016.61 1016.45 1016.25 1016.05 1015.77 1015.53 1015.33 1015.17 1015.05 1014.77 1014.53 1014.29 1014.05 1013.77 1013.57 1013.33 1013.17 1012.93 1012.73 1012.49 1012.17 1011.85 1011.57 1011.37 1011.17 1010.93 1010.65 1010.33 1009.97 1009.77 1009.73 1009.65 1009.53 1009.33 1009.17 1008.97 1008.73 1008.45 1008.17 1007.89 1007.69 1007.53 1007.37 1007.17 1006.93 1006.73 1006.61 1006.45 1006.33 1006.13 1005.93 1005.77 1005.53 1005.29 1005.05 1004.89 1004.77 1004.73 1004.69 1004.61 1004.57 1004.57 1004.57 1004.53 1004.49 1004.45
Wind_Speed
6 5 5 5 5 5 5 5 5 5 5 6 6 6 6 5 6 7 6 6 6 7 7 7 7 8 8 8 7 8 8 9 10 11 12 13 13 13 13 12 12 13 13 13 13 12 11 11 10 9 8 8 9 10 10 9 10 11 12 12 11 12 13 15 15 16 17 17 14
6 6 6 6 6 5 5 5 5 6 6 5 6 6 6 5 6 7 7 7 7 7 7 7 8 9 9 9 8 8 8 9 10 11 12 13 13 13 13 12 12 13 13 13 13 11 10 10 9 8 8 8 9 10 10 10 10 11 13 14 12 11 11 13 14 15 16 16 14
5 6 6 6 6 6 6 6 6 7 7 6 5 5 5 5 6 7 7 7 7 7 7 7 8 9 10 10 8 8 8 9 10 10 11 11 12 13 12 12 13 13 13 13 12 11 10 10 9 8 8 8 9 10 11 11 11 11 12 14 11 10 10 10 12 13 12 12 13
5 5 5 6 7 7 7 7 8 9 8 6 6 6 6 6 6 7 7 8 8 8 8 9 9 9 9 9 9 8 9 9 10 10 11 11 12 12 13 12 13 13 13 13 12 12 12 11 9 8 8 10 11 11 11 10 11 11 11 11 10 10 10 10 10 10 10 10 12
6 5 5 5 7 7 7 7 9 9 9 7 6 6 6 6 7 7 7 8 8 9 9 10 9 9 9 9 9 9 9 9 10 10 11 11 12 12 12 12 13 13 12 12 12 12 12 11 9 8 9 10 10 10 11 11 11 11 10 9 9 9 10 10 9 9 9 9 10
7 7 6 6 6 7 7 7 8 9 8 7 7 8 8 7 7 7 8 8 9 10 11 10 10 10 10 10 10 10 9 9 9 10 11 12 11 11 12 12 13 12 12 12 12 12 12 11 8 8 9 9 10 11 12 12 11 11 10 9 9 9 10 10 9 9 10 11 12
7 7 7 7 7 7 7 7 7 7 7 7 9 10 11 10 9 10 10 10 10 10 10 9 9 10 10 10 10 10 10 9 9 10 10 11 11 11 11 12 12 12 12 12 12 11 11 10 8 8 9 9 9 11 12 12 12 11 11 11 10 10 10 11 10 10 11 14 15
6 7 7 7 7 7 7 7 7 7 7 7 9 11 12 12 12 12 11 10 10 9 9 8 9 10 10 10 10 10 10 10 10 10 10 10 11 11 11 11 11 12 12 12 11 11 11 9 8 9 9 9 9 10 12 13 13 13 13 14 12 11 10 10 10 10 12 14 15
7 7 7 7 7 7 7 7 7 7 7 9 10 11 12 12 12 12 11 10 10 9 9 9 10 10 10 11 11 11 11 10 10 10 9 10 10 11 11 10 11 11 11 11 11 11 11 9 8 9 9 9 9 10 12 13 14 14 15 14 13 12 12 11 12 12 13 14 15
8 9 8 8 8 7 7 7 7 7 8 10 11 12 12 12 12 11 10 9 9 10 10 10 10 10 11 11 11 11 11 10 9 9 9 9 10 11 11 10 10 11 11 10 10 11 11 9 10 10 11 11 12 12 13 13 14 15 15 12 13 14 15 14 14 15 15 15 16
9 9 9 9 9 9 8 8 7 7 8 9 10 11 10 11 10 10 9 8 9 11 12 12 11 11 11 11 11 10 10 9 8 9 9 10 10 11 11 10 10 11 11 10 9 9 9 9 11 12 13 12 13 13 13 13 14 15 15 14 14 15 16 16 16 15 15 15 16
9 9 9 9 9 8 8 8 7 7 8 9 9 10 9 9 9 9 9 9 10 11 12 11 10 10 10 10 10 10 9 9 9 9 9 10 10 11 11 11 11 11 11 10 9 8 8 9 11 13 14 14 12 11 12 13 14 15 16 16 16 16 16 17 16 15 14 14 15
9 9 9 9 8 8 7 7 7 7 8 9 9 9 9 9 9 8 8 9 10 10 10 10 9 9 9 10 10 10 9 9 9 9 9 10 10 10 10 11 11 11 11 10 8 8 8 10 12 13 14 14 13 12 12 13 14 15 16 17 17 17 17 17 16 15 14 15 15
9 9 9 9 8 7 7 7 7 7 8 9 9 8 8 9 8 8 7 8 9 10 10 9 9 8 9 10 10 10 10 9 9 10 10 11 11 11 11 11 11 11 10 9 9 9 10 10 12 13 13 14 14 14 13 13 13 14 15 16 17 17 17 17 15 15 14 15 15
9 9 8 8 8 7 7 7 6 7 7 8 8 8 8 8 8 7 7 8 9 9 9 9 9 9 9 9 10 10 10 10 10 10 11 12 12 12 12 12 12 11 11 10 10 10 11 12 12 13 13 14 14 14 14 13 14 14 14 15 16 17 17 16 15 15 15 15 16
9 9 9 8 8 7 7 7 6 6 7 8 8 8 8 8 8 8 8 8 8 8 8 9 9 9 9 9 9 10 10 10 10 11 11 12 12 12 12 12 12 12 11 11 11 11 11 12 13 13 14 14 14 14 14 14 14 14 15 15 16 16 16 17 16 16 16 16 17
10 9 9 8 8 8 8 8 7 7 8 9 9 9 8 8 8 8 8 9 8 9 9 10 10 10 10 10 9 9 9 9 10 11 11 12 13 13 13 13 13 12 12 11 11 12 12 13 13 13 14 14 15 15 15 15 14 15 16 16 17 17 18 18 18 18 18 18 19
10 10 9 9 9 9 9 9 9 9 9 10 10 9 9 9 9 9 9 9 9 10 11 12 11 10 10 11 10 9 9 10 10 11 12 13 13 13 14 14 14 13 11 10 11 12 13 13 13 13 13 14 14 14 15 15 15 16 17 18 18 19 19 19 19 18 18 18 19
10 10 10 9 10 10 10 11 11 10 10 10 10 10 10 10 10 10 10 10 10 10 11 12 11 11 11 11 11 10 10 10 12 12 13 13 13 13 14 14 14 13 12 11 12 13 13 13 13 13 12 12 13 13 14 15 15 16 18 18 19 19 19 19 19 18 18 18 18
10 10 10 10 10 10 11 11 11 11 11 10 11 11 11 11 11 11 11 11 11 10 11 11 12 12 12 12 12 11 11 10 11 12 13 13 13 13 14 14 14 14 13 11 12 13 14 14 13 13 12 12 13 13 14 15 15 16 17 17 17 18 18 18 18 18 18 18 18
10 10 10 10 10 11 11 11 11 11 11 11 11 12 12 12 11 11 11 12 11 11 11 11 12 12 12 13 13 13 12 10 11 12 13 13 13 13 13 13 14 14 13 11 12 13 14 14 13 12 12 12 13 14 14 14 15 16 16 15 16 16 17 17 17 17 17 17 18
10 10 10 10 10 11 11 11 11 11 11 11 11 12 12 12 12 12 12 11 11 11 11 11 12 12 12 12 13 13 13 11 12 12 12 12 13 13 13 12 13 13 13 12 12 12 13 13 13 12 12 12 13 14 14 15 15 16 16 16 16 16 15 15 16 16 16 16 16
10 10 10 10 10 11 11 12 11 11 11 12 12 12 12 12 12 12 12 11 11 11 11 11 11 12 12 12 13 13 13 13 13 13 13 13 13 13 13 12 12 13 13 12 11 11 11 11 11 12 12 12 13 14 15 15 16 16 16 17 16 16 15 14 15 14 14 14 15
11 10 10 10 10 11 11 11 11 11 12 12 12 12 12 12 12 12 12 12 12 12 11 11 11 12 12 12 12 12 13 13 14 14 14 14 13 13 13 12 12 12 12 11 11 11 11 10 10 10 11 11 12 13 14 15 15 15 16 16 16 16 15 14 14 14 14 14 14
11 11 11 11 11 11 11 11 11 12 12 12 12 12 12 12 12 12 12 12 12 12 12 12 12 12 12 12 12 12 12 13 13 14 15 15 14 14 13 12 11 11 10 10 14 17 18 16 13 11 10 10 11 12 13 14 15 15 15 15 15 15 15 15 15 15 15 15 14
11 11 11 11 11 12 12 12 12 12 12 12 12 12 12 12 12 12 12 13 13 13 13 13 12 12 12 12 12 12 12 12 12 13 14 14 15 14 13 12 11 9 9 11 16 19 22 22 21 18 14 10 10 11 12 13 14 14 15 15 15 15 15 15 16 16 15 14 14
11 11 11 11 11 12 12 12 11 12 12 12 12 13 13 12 12 12 13 13 13 13 13 12 12 12 12 12 12 12 13 12 12 13 14 14 15 15 15 14 11 9 9 13 18 21 23 24 25 23 19 13 11 11 12 12 13 14 14 15 15 16 16 17 17 17 16 14 14
11 11 11 12 12 12 12 11 12 12 12 12 13 13 13 13 13 13 13 13 14 13 12 12 11 10 10 10 11 13 13 13 13 13 13 14 15 15 15 14 12 11 12 16 20 23 24 24 25 25 23 19 14 12 12 12 12 12 13 14 15 16 17 17 16 16 16 15 15
11 11 11 12 12 12 12 11 12 12 12 13 13 13 13 13 13 13 14 14 14 13 12 11 10 10 10 11 12 13 14 14 14 13 13 14 15 15 16 16 15 15 17 21 23 24 25 25 25 26 25 23 17 12 10 10 10 11 11 11 12 14 15 16 15 15 15 16 15
11 11 11 12 12 12 12 12 12 12 12 12 12 13 13 13 14 14 14 14 14 13 12 11 11 12 13 14 14 14 14 14 14 13 14 15 16 16 16 17 16 16 18 21 24 25 25 26 26 26 26 25 21 15 11 10 11 11 11 11 12 14 15 15 16 16 16 15 16
11 11 11 12 12 12 12 12 12 12 12 12 13 13 13 14 14 14 14 14 14 14 14 13 14 15 15 15 15 15 15 15 14 14 14 15 16 17 18 18 17 17 18 22 24 25 26 26 26 26 26 26 21 16 12 11 12 12 12 12 14 15 15 15 15 15 16 16 16
11 11 11 11 12 12 12 12 12 13 13 13 13 13 14 14 14 14 14 13 14 14 15 15 15 16 16 16 16 16 16 16 15 15 15 15 16 17 18 18 18 18 19 22 24 25 26 26 26 26 26 26 22 18 15 14 14 14 14 15 16 17 16 14 13 14 15 16 15
11 11 11 11 12 12 12 12 13 13 13 13 13 14 14 14 14 14 13 13 13 14 15 15 16 16 16 16 17 17 17 16 16 17 17 17 17 18 18 18 17 18 19 23 25 26 26 26 27 27 27 26 22 19 16 15 14 13 13 15 16 17 17 17 15 15 15 15 14
10 10 11 11 12 12 13 13 13 13 13 14 14 14 14 14 14 14 14 13 13 14 14 15 15 16 16 16 16 17 17 16 16 17 17 17 17 18 18 17 15 16 20 24 26 27 27 27 27 27 27 27 21 17 15 15 14 14 14 15 16 16 16 15 15 14 14 14 13
10 10 11 11 12 13 13 13 13 13 14 14 15 15 14 14 14 14 15 15 15 15 15 15 15 15 15 15 15 16 17 17 17 17 17 17 18 18 19 19 17 19 22 25 26 27 27 28 28 28 27 25 19 15 14 15 15 16 16 17 17 17 16 15 13 13 12 12 13
10 10 11 12 13 13 14 14 14 14 14 15 15 15 15 15 15 14 15 15 16 16 16 16 16 16 16 16 15 16 16 17 18 18 17 17 18 19 20 20 20 21 23 25 26 27 27 27 28 28 26 22 16 14 13 13 14 15 16 17 17 17 17 15 13 12 11 10 11
10 11 12 13 14 14 14 14 15 15 15 15 15 15 15 16 15 15 14 14 15 16 16 16 16 16 17 17 16 16 17 17 17 18 18 18 18 19 19 20 20 21 22 24 25 26 27 27 27 27 24 19 15 13 13 12 12 12 13 15 15 15 15 13 11 10 9 9 9
11 11 12 13 14 14 15 15 15 15 16 16 16 15 15 15 15 15 14 14 15 16 16 17 17 17 17 17 17 18 18 17 17 18 18 18 18 18 19 20 21 21 21 23 25 26 27 27 27 27 24 18 15 13 12 11 11 11 11 12 12 12 11 9 8 9 9 10 12
12 12 12 13 14 15 15 15 15 16 16 16 16 16 16 15 15 14 14 14 14 15 16 17 18 18 17 18 18 18 19 19 18 18 18 18 18 18 19 20 21 21 21 23 25 26 27 27 27 27 25 20 16 13 11 10 10 11 11 11 11 11 10 10 9 9 10 12 16
12 12 13 13 14 14 15 16 16 16 15 16 16 17 16 16 15 15 15 14 14 15 16 17 18 18 18 18 18 19 20 19 18 18 17 17 18 19 20 20 20 21 22 23 25 26 27 27 27 27 24 19 15 12 10 9 10 11 11 11 10 10 10 10 9 9 9 11 14
12 12 13 13 14 14 15 16 16 16 15 15 16 16 16 16 15 15 15 14 15 15 15 16 18 19 19 18 17 18 19 20 20 19 18 18 18 19 19 19 20 20 21 22 24 26 27 27 27 26 24 18 14 11 10 9 10 11 12 11 10 9 8 8 8 8 9 10 11
Wind_Direction
273 267 263 257 252 250 249 251 251 250 250 250 255 256 256 252 257 259 261 258 257 258 260 261 261 262 262 256 243 235 232 231 230 231 232 234 236 236 235 235 234 234 236 237 237 236 235 232 231 231 232 232 235 236 237 236 235 234 234 233 235 236 237 238 239 238 237 236 236
291 290 289 288 284 280 275 271 266 262 258 254 256 258 260 257 259 261 262 259 256 257 259 263 263 263 263 260 249 241 237 237 234 233 234 236 237 237 237 236 235 234 234 235 235 235 233 230 229 229 231 232 234 236 236 234 232 233 235 234 235 236 237 238 239 239 238 237 235
286 287 287 285 285 285 283 280 276 273 272 272 275 276 276 271 267 266 265 263 263 262 262 264 264 263 262 261 253 245 240 239 237 236 237 239 239 238 237 237 236 236 235 235 233 233 232 229 227 227 229 231 232 234 236 234 231 232 234 234 234 234 235 237 238 238 237 236 233
277 274 273 272 272 272 273 276 282 285 287 289 295 292 286 278 274 272 272 274 273 269 264 261 263 263 262 260 254 249 243 241 239 239 239 241 240 239 237 237 237 237 236 235 234 233 231 228 228 228 230 232 234 235 235 234 230 231 232 232 232 233 234 236 236 235 234 234 232
293 284 278 276 274 273 274 275 281 285 288 293 294 289 281 274 273 273 274 276 271 267 264 264 266 267 266 263 258 253 248 244 241 241 241 242 241 239 237 235 236 237 236 235 233 232 230 227 228 231 233 233 234 234 235 234 232 231 232 231 231 231 232 234 234 232 231 232 230
302 298 292 285 280 278 277 276 275 277 280 284 283 280 277 273 270 269 269 269 270 273 274 274 273 271 269 266 261 257 253 247 244 243 243 243 243 240 237 235 235 236 236 235 233 231 229 224 229 232 233 235 237 238 237 235 233 232 232 232 231 230 230 231 231 230 230 231 231
295 295 295 292 286 283 280 279 277 277 278 279 277 276 275 276 275 273 271 272 277 280 280 278 274 272 270 269 265 261 257 252 247 243 241 243 243 242 239 236 235 235 235 235 232 230 226 222 228 232 234 235 238 237 236 232 231 231 232 233 231 230 229 231 230 230 230 231 231
290 290 289 290 288 285 284 282 282 282 281 279 277 276 277 279 279 279 278 279 277 277 277 277 272 270 269 269 267 265 261 257 252 246 242 242 243 242 240 239 237 236 234 233 231 229 226 222 227 231 234 234 237 237 234 230 228 229 231 233 233 230 228 227 227 226 228 230 229
303 299 297 296 293 290 287 285 283 282 281 281 280 280 281 282 282 281 281 279 277 277 277 275 272 270 269 267 265 264 263 260 257 252 247 244 243 242 241 239 237 236 235 232 230 227 225 223 227 230 232 232 235 235 233 228 226 228 230 233 234 233 230 228 226 226 227 228 228
309 308 308 307 303 300 297 293 287 280 278 279 281 281 282 283 282 281 280 279 282 282 279 275 274 273 270 265 263 262 262 262 260 258 255 249 245 243 241 239 236 235 234 230 227 224 223 224 229 232 233 233 235 236 235 229 227 227 229 233 234 235 234 232 229 228 228 228 228
306 306 307 307 306 305 303 300 294 286 281 279 282 283 283 282 281 280 280 281 282 280 277 276 276 274 271 267 264 262 261 261 261 261 259 256 251 248 245 242 238 236 233 229 223 219 219 222 228 232 233 234 235 237 237 233 230 230 232 235 236 237 237 235 232 230 229 229 230
304 304 304 302 302 302 301 299 296 291 287 284 284 285 285 283 281 280 280 280 278 278 278 278 275 272 269 269 266 264 262 260 259 258 258 257 255 253 250 248 245 242 238 233 224 219 218 221 226 230 233 235 235 236 236 234 232 233 235 237 237 238 239 239 235 233 232 232 233
303 303 303 302 300 299 297 294 293 292 290 288 288 287 287 287 285 284 282 280 279 280 282 281 275 270 268 268 268 267 265 261 256 254 254 254 254 253 252 251 249 247 245 241 231 224 223 223 225 228 232 234 234 234 234 232 232 233 235 238 238 239 240 240 238 237 237 237 237
303 301 300 300 299 298 295 294 293 292 291 291 291 291 291 291 290 287 283 281 281 283 285 285 280 274 269 267 268 267 266 264 260 256 254 254 253 252 250 249 248 247 246 244 236 230 228 230 228 229 231 234 235 235 234 232 232 232 234 236 238 239 240 241 240 239 239 239 240
305 303 300 300 299 298 296 295 294 293 294 293 294 295 295 295 294 292 288 284 283 284 285 286 284 279 275 269 268 267 266 265 262 260 258 257 255 253 251 251 248 246 244 242 237 231 229 230 231 231 232 235 237 237 236 234 233 233 234 235 237 239 240 241 240 238 237 237 239
308 306 305 304 303 302 300 298 297 296 296 296 298 298 299 298 297 296 294 289 288 287 286 284 284 284 282 276 270 267 265 264 262 260 260 260 259 257 255 254 253 250 246 242 239 235 231 228 229 229 230 233 236 237 237 236 235 235 234 235 236 237 238 238 237 235 234 233 235
310 309 308 307 306 305 304 303 302 300 300 299 300 300 300 299 300 299 297 294 294 292 290 287 286 287 287 284 278 272 268 266 262 261 261 262 262 262 261 260 259 257 253 249 247 244 240 234 231 229 228 229 231 233 233 233 233 233 232 233 233 234 234 234 234 233 232 231 232
310 309 309 309 308 307 306 306 305 303 302 302 302 302 301 300 300 299 298 296 294 293 292 291 290 289 288 287 284 279 273 270 268 266 265 265 266 267 267 266 266 264 261 257 255 253 251 247 242 238 234 233 232 231 231 229 230 230 230 230 231 231 231 232 232 232 231 231 231
307 307 308 309 308 308 307 307 306 305 304 303 303 302 302 300 299 298 298 297 294 292 291 291 291 290 288 285 284 280 277 273 272 270 269 268 269 269 269 269 269 267 264 260 258 257 257 255 252 248 245 242 240 238 236 234 233 232 232 231 231 231 230 230 230 230 230 230 231
304 305 306 307 307 307 306 306 305 304 304 303 303 302 301 299 298 297 296 296 295 294 292 291 291 291 289 288 285 283 279 276 274 273 272 271 270 269 269 269 269 267 264 259 258 258 258 257 255 252 250 247 247 246 245 243 242 241 239 238 236 235 233 232 230 230 229 229 230
303 303 304 305 305 305 304 303 303 302 302 301 300 299 299 298 298 296 294 294 295 294 292 290 289 289 289 289 288 285 282 280 277 275 274 273 270 269 268 268 268 267 264 259 258 258 258 257 256 253 251 248 248 248 247 247 247 246 246 245 243 242 240 237 235 232 230 230 230
303 304 305 305 303 302 301 301 301 301 300 299 298 297 297 297 296 295 294 294 295 294 292 290 288 287 287 287 286 286 284 283 280 277 276 275 272 270 268 268 268 267 266 262 260 259 259 259 256 254 252 251 249 248 247 248 249 250 249 248 247 246 245 243 240 237 235 233 233
305 305 305 304 302 301 301 301 301 300 299 298 298 297 297 297 296 296 296 295 295 293 292 290 289 287 286 284 284 283 284 284 282 280 277 275 274 272 270 268 266 266 265 263 261 259 259 259 257 254 251 250 250 250 249 248 249 250 251 250 249 247 245 244 242 241 239 237 236
305 305 305 304 303 302 301 301 301 300 299 299 299 298 298 298 298 298 298 297 296 294 293 292 291 289 287 285 283 281 280 281 281 280 279 276 274 273 271 269 265 263 262 261 259 258 257 258 256 253 249 246 247 248 249 248 247 248 249 249 249 248 246 243 241 240 239 238 237
304 304 303 302 302 302 301 301 300 300 299 299 299 299 299 299 299 299 299 299 298 296 295 294 293 291 290 287 284 280 278 277 278 279 279 279 277 275 273 271 268 265 261 259 261 262 262 263 262 258 252 247 245 246 247 246 245 245 245 245 246 246 246 245 242 239 237 236 235
303 303 302 301 301 301 301 300 299 299 298 298 299 299 299 299 300 300 300 299 299 298 298 297 295 294 292 290 287 284 282 279 279 279 280 281 281 279 277 274 271 267 262 260 264 266 268 269 270 269 265 258 253 250 248 246 243 241 240 241 242 243 245 246 245 242 239 235 233
303 302 301 300 300 299 299 298 298 298 298 299 299 300 300 301 301 301 300 299 299 299 299 298 296 294 293 292 289 287 285 284 283 282 280 280 281 281 280 278 275 269 263 263 267 270 273 274 274 273 271 266 260 256 253 250 244 240 238 239 240 240 242 245 247 247 245 241 236
301 301 300 300 299 298 297 298 299 299 299 300 300 300 301 301 301 300 300 299 300 300 300 298 296 295 294 293 291 289 288 287 286 285 283 281 280 280 280 280 278 273 269 269 272 274 276 277 277 277 276 273 269 263 257 254 248 243 239 238 239 240 241 242 245 246 247 245 240
299 299 299 299 298 297 297 298 299 299 300 300 300 300 301 301 300 300 299 299 300 300 300 299 299 297 295 293 292 291 290 288 287 286 285 284 282 281 281 281 280 278 277 277 278 279 280 280 280 279 278 277 274 269 262 256 252 248 244 240 238 238 239 239 241 242 244 244 242
298 298 298 297 296 296 297 297 297 298 299 300 300 300 300 300 300 299 299 299 298 297 296 297 297 295 293 291 291 291 290 289 288 287 286 286 285 284 283 283 282 281 280 281 282 282 282 282 281 280 279 278 275 271 265 260 257 254 251 248 245 242 241 240 240 240 241 242 243
297 296 295 295 294 294 294 295 296 298 298 299 300 299 299 299 298 297 297 296 295 294 293 293 292 290 289 289 289 290 289 290 290 289 287 286 286 286 286 287 285 284 283 284 284 284 284 283 282 281 280 279 276 272 266 260 257 254 253 252 251 250 249 247 244 242 242 243 244
294 294 293 293 293 293 294 295 297 298 298 298 298 298 297 296 295 294 293 293 293 293 293 292 290 290 290 291 290 290 290 291 290 290 290 289 289 289 289 289 288 287 286 286 287 287 286 285 284 283 282 280 278 274 269 263 259 256 254 252 253 253 254 253 251 249 247 247 246
293 292 291 291 292 293 294 295 297 298 298 298 297 296 295 294 294 293 292 292 292 292 292 291 291 291 292 292 292 292 292 291 291 291 292 292 292 291 291 290 289 289 289 289 290 289 289 288 287 286 284 283 281 277 273 268 263 259 256 255 256 256 256 256 255 254 253 251 250
292 292 291 291 292 294 295 296 297 297 297 297 296 295 294 294 294 294 294 293 293 292 291 290 290 290 290 291 291 292 292 292 292 293 293 293 293 292 291 291 289 290 291 291 291 291 291 290 288 287 286 285 282 278 273 269 266 263 262 262 263 263 262 259 257 255 254 253 252
291 292 293 293 294 295 297 297 298 297 297 297 296 295 295 293 293 294 294 295 295 294 292 291 290 290 289 290 289 290 291 292 293 293 294 294 294 293 292 291 289 290 291 292 292 292 292 291 289 288 287 285 282 277 273 270 268 267 266 267 267 267 265 263 260 256 254 253 253
291 292 294 295 296 297 297 298 298 298 297 297 296 296 296 295 295 294 295 296 296 294 293 292 292 292 292 292 291 291 291 293 293 294 294 294 294 293 292 292 291 291 292 293 293 293 292 291 290 289 288 285 281 276 272 270 269 268 267 267 267 266 266 264 261 258 255 253 253
293 294 295 297 297 297 298 298 298 298 297 296 296 297 297 297 297 297 297 297 296 295 294 294 294 294 294 294 294 293 293 293 293 294 294 293 293 293 293 293 292 292 293 294 294 294 293 292 291 290 289 286 282 277 273 270 268 267 266 265 265 265 265 264 261 258 256 254 253
297 296 296 296 296 297 298 298 298 297 297 296 296 296 296 297 297 297 297 298 297 296 296 296 295 295 295 296 295 294 293 293 293 293 293 293 293 293 293 293 293 293 294 295 295 295 294 294 293 291 290 287 283 279 276 272 269 267 266 265 266 265 264 262 262 263 262 259 258
298 297 296 295 295 296 296 297 296 296 296 296 296 296 297 297 297 297 297 297 296 296 296 296 296 295 295 296 296 295 294 293 293 292 292 292 292 292 293 293 294 294 295 296 296 296 295 294 293 292 290 287 284 281 278 275 272 269 268 268 268 267 266 264 266 266 265 262 261
298 297 296 294 294 295 295 295 294 294 294 295 296 296 296 297 296 296 296 296 296 295 295 295 295 295 295 296 296 296 295 294 294 293 292 291 291 292 292 293 294 295 296 296 296 295 294 293 292 291 289 287 283 279 275 272 269 267 267 267 267 267 267 266 266 265 263 261 261
298 297 295 294 293 293 293 293 293 293 293 293 293 294 294 295 295 296 297 297 297 296 295 295 294 295 295 296 296 295 295 295 294 294 293 293 292 292 292 293 293 294 295 295 294 294 293 292 291 290 289 286 282 277 272 267 266 266 266 266 265 266 266 266 264 262 261 260 259